Location: Rock Island IL
(41.5000°N, 90.5500°W)
Time: 19:51:22
(UTC-05:00)

Daily predictions for brighter satellites

Satellite Brightness Start Highest point End
(mag) Time Altitude Azimuth Time Altitude Azimuth Time Altitude Azimuth
Cosmos 2344 3.7 19:32:51 10° SSW 19:40:27 69° ESE 19:48:50 10° NE
CZ-3B DEB 3.3 19:31:33 10° SW 19:44:26 88° NW 19:50:08 10° NE
In-Cosmos 22 4.5 19:40:48 10° N 19:45:51 41° ENE 19:50:47 10° SE
Cosmos 1805 4.3 19:44:46 10° SE 19:47:59 25° E 19:51:14 10° NNE
Cosmos 1818 4.2 19:43:40 10° NNW 19:48:46 38° NE 19:53:48 10° ESE
Cosmos 1844 Rocket 3.5 19:44:04 10° SW 19:49:37 59° WNW 19:55:12 10° NNE
Cosmos 1378 3.2 19:46:45 10° N 19:50:31 89° W 19:54:15 10° S
COSMOS 2487 4.4 19:48:41 10° NNE 19:50:46 15° ENE 19:52:52 10° E
ASTRO F (AKARI) 4.5 19:48:17 10° N 19:51:27 75° WNW 19:54:39 10° SSW
ALOS 2.3 19:48:36 10° SSE 19:53:14 68° ENE 19:57:53 10° N
Resurs 1-3 4.2 19:51:39 10° SE 19:55:41 38° ENE 19:59:45 10° N
Cosmos 1437 Rocket 3.4 19:52:33 10° SSW 19:56:32 65° W 20:00:37 10° N
Meteor 1-22 Rocket 4.3 19:51:17 10° S 19:57:06 78° E 20:03:10 10° NNE
Meteor 1-4 Rocket 3.5 19:56:27 10° SSE 19:59:17 24° E 20:02:10 10° NE
Cosmos 1833 Rocket 3.6 19:55:57 10° N 20:00:51 29° NE 20:05:39 10° ESE
FENGYUN 3A 3.6 19:57:22 10° SSE 20:02:46 81° ENE 20:08:11 10° N
Cosmos 1470 4.4 20:01:48 10° ESE 20:04:08 15° E 20:06:29 10° NE
Cosmos 2278 Rocket 2.2 20:01:08 10° SSW 20:06:48 83° ESE 20:12:31 10° NNE
SJ-6B 3.2 20:03:41 10° S 20:07:23 62° W 20:11:05 10° NNW
Cosmos 1544 3.4 20:04:14 10° SSE 20:07:41 42° E 20:11:10 10° NNE
CZ-4B DEB 4.4 20:12:04 15° E 20:13:00 17° ENE 20:15:06 10° NNE
ATLAS 5 CENTAUR R/B 2.6 20:14:02 10° S 20:17:57 27° ESE 20:22:06 10° ENE
ISS -2.2 20:15:50 10° S 20:18:05 17° SE 20:18:25 17° SE
USA 215 4.0 20:13:40 10° ENE 20:19:17 30° SE 20:24:52 10° S
Okean 3 Rocket 3.5 20:15:46 10° N 20:20:10 75° E 20:24:35 10° SSE
Cosmos 1934 Rocket 4.3 20:15:31 10° SSW 20:21:37 72° W 20:27:42 10° N
H-2A R/B 2.8 20:18:48 10° SSE 20:22:41 88° W 20:26:39 10° NNW
Cosmos 2297 3.9 20:17:16 10° S 20:22:45 51° ESE 20:28:17 10° NNE
Tiangong 1 2.9 20:21:32 10° W 20:23:53 21° SSW 20:25:54 12° SSE
Cosmos 1867 3.7 20:19:34 10° SSW 20:24:50 52° ESE 20:30:09 10° NE
Abrixas 2.2 20:22:46 10° WNW 20:25:37 84° NNE 20:26:58 27° ESE
Spot 2 Rocket 3.5 20:23:02 10° SSE 20:28:08 89° WSW 20:33:17 10° NNW
Cosmos 1758 3.2 20:28:37 10° S 20:32:35 76° E 20:36:35 10° N
Helios 1B rocket 2.7 20:28:55 10° NNE 20:32:54 45° E 20:36:51 10° S
Cosmos 1076 Rocket 3.4 20:29:11 10° N 20:33:26 66° E 20:37:38 10° SSE
Cosmos 2082 Rocket 2.3 20:31:19 10° NNW 20:36:58 61° ENE 20:41:10 18° SE
Lacrosse 5 2.9 20:32:43 10° WSW 20:37:36 47° NW 20:42:30 10° NE
USA 186 0.6 20:39:54 71° ESE 20:40:02 75° ENE 20:42:14 10° N
Cosmos 1953 2.3 20:36:27 10° S 20:40:31 87° E 20:44:35 10° N
Lacrosse 4 Rocket 4.4 20:39:37 10° W 20:41:59 15° NW 20:44:21 10° NNW
GP-B 3.0 20:41:11 10° SSE 20:45:34 65° E 20:49:59 10° N
Envisat 3.2 20:42:59 20° SE 20:46:14 51° ENE 20:51:09 10° N
Cosmos 1939 Rocket 3.5 20:45:32 31° ESE 20:46:44 39° ENE 20:50:36 10° N
Helios 1A 2.8 20:43:23 15° SSE 20:46:51 78° ENE 20:51:03 10° N
CZ-4B DEB 4.5 20:47:00 29° SSE 20:48:39 66° ENE 20:52:13 10° N
Cosmos 1766 Rocket 3.5 20:44:45 10° N 20:49:14 72° E 20:52:36 17° SSE
Cosmos 1271 Rocket 2.9 20:45:22 10° S 20:49:15 50° E 20:53:09 10° NNE
Cosmos 2016 Rocket 4.4 20:47:02 16° SSE 20:51:28 38° E 20:57:05 10° NNE
Resurs 01 Rocket 2.8 20:47:26 10° S 20:51:39 44° W 20:55:54 10° NNW
H-2A R/B 4.2 20:52:51 11° NE 20:52:51 11° NE 20:53:49 10° NE
Cosmos 1125 Rocket 3.6 20:50:14 10° SSW 20:55:25 76° WNW 21:00:40 10° NNE
Cosmos 1048 Rocket 3.9 20:53:42 10° NNW 20:58:50 83° WSW 21:02:27 20° SSE
Geosat 4.1 20:54:29 10° NNE 20:59:31 79° WNW 21:04:32 10° SSW
Cosmos-2242 2.8 20:55:25 10° S 20:59:39 75° E 21:03:54 10° NNE
Lacrosse 5 rocket 1.7 20:58:17 10° NW 21:02:03 42° NE 21:02:25 40° NE
ERS-1 Rocket 3.4 21:03:22 37° E 21:04:16 41° ENE 21:08:58 10° N
Cosmos 1674 2.7 21:01:18 10° N 21:05:05 75° W 21:06:52 30° S
Cosmos 2100 Rocket 3.9 21:01:06 10° S 21:07:24 78° E 21:13:47 10° N
SeaSat 1 4.4 21:03:51 10° SSW 21:07:56 26° WSW 21:12:03 10° NW
SAR-Lupe-4 4.5 21:05:55 18° S 21:08:20 47° W 21:11:49 10° NNW
SJ-11-01 4.2 21:06:19 34° SSE 21:08:23 76° ENE 21:13:07 10° N
YAOGAN 6 3.8 21:10:52 30° NE 21:10:52 30° NE 21:13:17 10° N
Tsikada Rocket 4.4 21:11:07 10° N 21:16:54 39° ENE 21:17:28 38° E
Meteor 1-29 3.7 21:16:00 10° N 21:19:24 54° WNW 21:22:08 15° SSW
Cosmos 1743 Rocket 3.4 21:16:17 10° N 21:20:43 73° E 21:21:02 70° ESE
Cosmos 1500 Rocket 3.9 21:18:13 10° N 21:21:47 48° NE 21:21:47 48° NE
Cosmos 1356 Rocket 4.1 21:21:12 10° N 21:24:09 40° NNE 21:24:09 40° NNE
COSMOS 2487 4.0 21:23:07 10° NW 21:26:23 34° WSW 21:27:14 29° SW
Cosmos 1802 Rocket 3.9 21:22:33 10° S 21:28:41 89° E 21:34:53 10° N
BREEZE-M DEB (TANK) 4.4 21:28:49 10° W 21:32:22 55° NNW 21:44:15 10° ENE
Cosmos 2251 Rocket 3.5 21:28:47 10° NNW 21:34:05 62° ENE 21:34:11 62° ENE
Cosmos 1470 4.3 21:36:12 10° SW 21:39:54 36° WNW 21:43:36 10° N
Cosmos 2061 Rocket 4.3 21:36:01 10° SSW 21:42:22 67° W 21:48:47 10° N
MetOp-B 4.2 21:44:56 61° NE 21:44:56 61° NE 21:49:50 10° N
Cosmos 1833 Rocket 3.7 21:39:37 10° NW 21:44:52 41° WSW 21:47:24 26° SSW
Cosmos 1340 Rocket 4.1 21:43:46 10° NNW 21:47:29 37° W 21:47:50 36° WSW
NOAA 11 4.2 21:49:03 64° NE 21:49:03 64° NE 21:54:08 10° N
ISS -0.6 21:51:04 10° WSW 21:51:09 11° WSW 21:51:09 11° WSW
Cosmos 1842 Rocket 4.3 21:55:26 49° NNW 21:55:26 49° NNW 21:58:55 10° N
CZ-3B DEB 4.0 21:50:39 10° W 21:56:48 24° NNW 21:59:39 14° NNE
USA 245 4.4 22:01:58 63° NNE 22:01:58 63° NNE 22:07:25 10° N
Cosmos 2151 4.3 21:57:19 10° N 21:59:52 35° NNW 21:59:52 35° NNW
ATLAS 5 CENTAUR R/B 3.1 21:57:57 10° WSW 22:02:23 39° NW 22:07:14 10° NNE
USA 215 3.3 21:56:06 10° NE 22:02:39 76° NW 22:09:08 10° WSW
BREEZE-M DEB (TANK) 4.0 22:06:27 10° WSW 22:10:57 81° NNW 22:29:52 10° ENE
Cosmos 2082 Rocket 4.4 22:16:40 10° WNW 22:20:29 19° W 22:23:04 14° SW
Lacrosse 5 4.4 22:18:25 10° WNW 22:21:42 17° NNW 22:24:37 11° NNE
SPOT 5 3.8 22:24:16 51° NW 22:24:16 51° NW 22:28:20 10° NNW
H-2A R/B 3.4 22:33:28 35° N 22:33:28 35° N 22:36:28 10° N
ARGOS 4.1 22:33:03 45° NW 22:33:03 45° NW 22:36:50 10° NNW
USA 267 3.5 22:35:30 62° N 22:35:30 62° N 22:41:20 10° NW
Terra 4.1 22:43:38 18° N 22:43:38 18° N 22:44:52 10° N
Lacrosse 5 rocket 4.4 22:38:04 10° WNW 22:38:08 10° WNW 22:38:08 10° WNW
Cosmos 2369 Rocket 4.4 23:16:36 19° N 23:16:36 19° N 23:18:19 10° NNE
